Theta_e
295 293 292 292 292 293 293 294 295 294 295 295 297 299 299 298 299 297 298 296 295 296
294 294 293 292 293 294 294 294 295 294 293 294 296 297 299 298 297 299 298 298 297 295
294 294 294 292 292 294 295 295 295 293 293 293 294 296 298 298 298 298 297 298 296 295
294 294 294 293 293 294 295 295 295 293 292 292 293 296 297 298 298 298 297 298 296 296
293 292 292 293 293 294 294 295 295 294 292 295 298 297 297 297 298 296 296 297 297 296
291 291 291 293 293 293 294 294 295 294 292 295 297 299 297 298 297 297 296 296 296 296
292 292 291 293 293 293 294 294 294 295 293 295 296 295 294 295 295 296 296 296 297 297
292 294 293 293 293 293 293 293 294 294 295 293 296 297 294 293 292 292 292 293 294 297
292 293 293 292 292 293 293 292 293 293 294 294 295 298 297 294 292 293 293 292 293 294
292 292 293 293 292 291 292 292 292 293 294 294 294 297 296 295 294 291 291 292 294 293
292 292 292 293 293 292 292 291 292 292 293 294 293 295 295 294 294 293 293 291 294 294
292 292 292 291 293 293 292 291 290 292 292 292 293 296 295 293 292 292 292 293 293 293
292 292 292 291 291 293 293 292 293 292 292 293 292 295 295 293 291 291 290 291 292 295
292 291 292 294 292 294 293 293 292 292 292 292 292 293 295 294 291 290 290 290 289 291
Wind_Speed
16 11 11 12 11 10 10 11 15 13 13 14 11 11 6 3 4 4 6 8 6 6
15 15 14 15 14 11 13 11 15 14 14 14 12 10 7 4 4 3 4 6 9 5
15 16 15 13 16 17 16 15 17 14 13 13 12 7 9 4 4 2 3 4 5 6
15 16 15 14 15 16 17 16 19 15 15 13 11 5 6 4 4 3 3 4 7 8
16 14 15 15 16 17 17 17 18 18 18 16 5 1 4 5 4 4 3 3 4 5
15 14 15 16 17 17 17 18 19 18 19 17 17 8 5 7 7 6 6 4 6 5
16 15 15 15 16 17 17 17 18 19 19 14 17 15 14 15 14 12 9 10 9 6
15 15 15 15 15 15 16 16 17 18 18 17 13 11 11 12 11 10 9 9 9 11
14 14 16 14 14 15 15 17 17 17 17 17 11 23 21 14 11 14 12 10 8 8
14 14 15 15 14 12 15 16 17 17 17 18 15 24 21 17 10 8 10 12 10 8
13 13 13 14 15 14 12 13 15 16 16 16 13 22 21 16 12 12 12 12 10 10
12 13 13 14 14 13 12 12 11 13 16 16 15 24 22 16 11 12 12 13 14 7
12 11 13 12 12 11 10 11 10 12 12 18 16 23 23 16 9 11 10 12 15 23
11 10 10 11 10 11 11 11 11 11 11 11 14 15 22 21 11 9 8 9 8 10
Wind_Direction
347 346 343 344 331 326 331 328 331 329 331 331 322 307 303 275 254 241 227 231 238 229
349 348 347 344 334 336 335 330 331 337 328 323 317 317 295 301 267 255 262 246 224 219
351 353 349 345 345 346 344 342 340 338 327 321 320 309 301 289 270 297 210 270 239 231
352 351 348 355 350 347 349 350 348 346 336 322 308 298 299 305 321 255 246 268 207 240
355 349 347 359 358 353 354 358 357 353 351 345 360 0 323 322 343 340 315 254 258 225
358 356 352 358 360 358 357 2 6 4 1 5 27 36 1 326 352 348 348 326 298 295
357 2 0 356 360 3 3 7 12 13 6 6 32 33 24 22 17 14 351 339 319 291
355 3 9 5 1 3 8 12 14 16 18 3 25 36 38 24 26 20 8 356 342 319
358 1 13 9 12 355 15 17 17 20 18 15 5 32 37 37 21 11 9 9 357 336
3 7 5 14 14 12 15 14 20 17 18 19 358 25 21 28 35 23 9 350 9 15
1 9 7 2 17 18 20 16 11 21 17 17 7 32 20 18 21 24 29 18 350 27
358 2 9 11 6 17 21 18 26 15 22 14 17 19 28 19 24 20 20 13 19 40
359 358 7 12 6 3 19 21 17 30 18 24 11 9 24 24 20 23 25 24 17 15
360 4 5 8 9 9 14 22 19 21 24 20 14 15 17 23 24 13 22 25 17 20